Simultaneous Nadir Overpasses (SNOs) Predictions

Prediction of SNOs between GOES-16 and TERRA Satellite Orbit:

Table of predicted SNOs for the next 14.0 days since TLE Epoch: 5/11/2024
Index Date Time (GOES-16) GOES-16 Lat,Lon TERRA Lat,Lon Distance(km) Time Diff (sec)
1 05/13/2024 02:52:42 -0.05, -75.21 -0.14, -75.55 39.43 80
2 05/15/2024 02:32:44 -0.04, -75.22 0.79, -71.39 436.58 80
3 05/15/2024 14:52:39 0.04, -75.23 0.24, -76.23 113.46 80
4 05/17/2024 14:37:58 0.04, -75.25 -0.65, -72.05 364.69 80
5 05/18/2024 02:58:02 -0.04, -75.26 -0.37, -76.93 189.40 80
6 05/20/2024 02:37:59 -0.03, -75.29 0.48, -72.73 290.55 80
7 05/20/2024 14:57:53 0.03, -75.30 0.48, -77.58 258.67 80
8 05/22/2024 14:43:07 0.03, -75.33 -0.38, -73.37 222.61 80
9 05/23/2024 03:03:11 -0.03, -75.34 -0.62, -78.25 330.66 80
